Location: Chandrammap?lem
(16.9200°N, 81.0051°E)
Time: 03:17:09
(UTC+00:00)

Cosmos 614 Rocket - Pass Details

Date: 29 May 2024
Orbit: 730 x 761 km, 74.1° (Epoch: 17 June)

Event Time Altitude Azimuth Distance (km) Brightness Sun altitude
Exits shadow 15:09:27 48° 34° (NE) 982 4.5 -26.8°
Drops below altitude 10° 15:13:13 10° 19° (NNE) 2,282 6.6 -27.5°
Sets 15:15:36 0° 17° (NNE) 3,211 7.5 -28.0°
